Location: Antin
(43.3330°N, 0.2804°E)
Time: 01:11:30
(UTC+00:00)

Aureole 2 - Visible Passes

Search period start: 15 August 2022 00:00
Search period end: 25 August 2022 00:00
Orbit: 364 x 860 km, 73.9° (Epoch: 14 August)

Date Brightness Start Highest point End Pass type
(mag) Time Alt. Az. Time Alt. Az. Time Alt. Az.
15 Aug 6.0 19:57:38 10° SSW 20:02:48 58° WNW 20:07:20 10° NNE visible
16 Aug 7.8 04:27:35 10° NNE 04:29:22 14° ENE 04:31:04 10° E visible
16 Aug 7.2 20:13:24 10° SW 20:18:00 33° WNW 20:22:04 10° N visible
17 Aug 8.2 20:29:44 10° WSW 20:33:15 19° WNW 20:36:29 10° NNW visible
18 Aug 8.8 20:47:18 10° WNW 20:48:37 11° NW 20:49:53 10° NW visible
19 Aug 6.5 19:19:44 10° SW 19:24:34 46° WNW 19:28:45 10° N visible
20 Aug 7.5 03:48:54 10° NNE 03:51:00 17° ENE 03:53:01 10° ESE visible
20 Aug 7.7 19:35:38 10° WSW 19:39:43 26° WNW 19:43:20 10° N visible
21 Aug 5.9 04:03:19 10° N 04:06:10 35° ENE 04:08:53 10° SE visible
21 Aug 8.4 19:52:15 10° W 19:54:57 15° WNW 19:57:26 10° NNW visible
22 Aug 3.9 04:18:10 10° NNW 04:21:12 88° WSW 04:24:07 10° SSE visible
23 Aug 7.9 02:56:43 10° NE 02:57:12 10° NE 02:57:41 10° ENE visible
23 Aug 4.7 04:33:22 10° NW 04:36:06 32° WSW 04:38:44 10° S visible
24 Aug 6.8 03:10:04 10° N 03:12:25 20° ENE 03:14:42 10° ESE visible
